Location: Huntsville
(41.2590°N, 111.7678°W)
Time: 23:31:09
(UTC+00:00)

Courier 1B Rocket - Pass Details

Date: 21 June 2021
Orbit: 920 x 1202 km, 28.2° (Epoch: 24 July)

Event Time Altitude Azimuth Distance (km) Brightness Sun altitude
Rises 06:14:57 0° 255° (WSW) 3,636 8.0 -23.1°
Reaches altitude 10° 06:18:55 10° 232° (SW) 2,646 7.1 -23.3°
Enters shadow 06:19:00 10° 231° (SW) 2,630 7.0 -23.3°
Maximum altitude 06:22:12 15° 200° (SSW) 2,303 - -23.5°
Drops below altitude 10° 06:25:26 10° 169° (SSE) 2,603 - -23.6°
Sets 06:29:17 0° 146° (SE) 3,540 - -23.8°
